CST,Max TemperatureF,Mean TemperatureF,Min TemperatureF,Max Dew PointF,MeanDew PointF,Min DewpointF,Max Humidity, Mean Humidity, Min Humidity, Max Sea Level PressureIn, Mean Sea Level PressureIn, Min Sea Level PressureIn, Max VisibilityMiles, Mean VisibilityMiles, Min VisibilityMiles, Max Wind SpeedMPH, Mean Wind SpeedMPH, Max Gust SpeedMPH,PrecipitationIn, CloudCover, Events, WindDirDegrees
2012-12-1,37,31,25,34,29,24,92,84,75,29.85,29.78,29.67,,,,12,6,14,0.00,,,326
2012-12-2,42,33,24,37,32,25,100,87,73,29.80,29.59,29.34,,,,12,6,,0.01,,,150
2012-12-3,48,38,27,40,26,13,92,73,53,30.05,29.72,29.33,,,,32,18,44,0.02,,,293
2012-12-4,22,16,9,16,12,6,91,81,71,30.35,30.26,30.09,,,,13,6,16,0.00,,,89
2012-12-5,40,31,21,29,23,15,81,70,59,30.18,29.85,29.65,,,,18,11,23,0.00,,,174
2012-12-6,38,31,23,30,22,16,92,76,59,30.03,29.97,29.81,,,,27,15,41,0.00,,,303
2012-12-7,20,15,10,19,13,7,100,87,73,30.12,30.05,29.95,,,,13,6,16,0.00,,,80
2012-12-8,21,15,9,19,10,-1,100,92,83,30.32,29.99,29.86,,,,22,10,31,0.34,,,43
2012-12-9,8,0,-9,2,-2,-12,91,85,79,30.53,30.40,30.15,,,,16,9,18,0.00,,,306
2012-12-10,22,13,3,18,10,1,87,78,68,30.09,29.84,29.76,,,,20,12,24,0.00,,,254
2012-12-11,23,13,2,22,10,0,95,84,73,29.91,29.80,29.61,,,,26,10,32,0.00,,,104
2012-12-12,28,21,13,22,14,4,96,86,75,30.05,29.80,29.59,,,,14,7,17,0.00,,,41
2012-12-13,28,15,2,27,15,2,92,88,84,30.11,30.06,29.98,,,,14,7,17,0.01,,,164
2012-12-14,24,22,20,23,19,10,100,96,91,29.96,29.83,29.76,,,,12,7,15,0.00,,,208
2012-12-15,27,15,3,25,15,0,92,86,80,29.88,29.84,29.78,,,,22,10,25,0.00,,,322
2012-12-16,20,17,14,18,15,13,100,92,84,29.88,29.85,29.81,,,,12,5,14,0.00,,,108
2012-12-17,24,20,16,22,19,15,100,92,84,29.80,29.65,29.56,,,,12,7,14,0.01,,,158
2012-12-18,31,26,20,28,21,15,100,91,81,29.72,29.61,29.56,,,,14,6,18,0.03,,,189
2012-12-19,19,15,11,13,8,-3,88,82,76,30.21,29.99,29.74,,,,23,17,29,0.00,,,296
2012-12-20,12,2,-8,9,0,-10,95,88,80,30.24,30.22,30.20,,,,8,1,9,0.00,,,41
2012-12-21,24,12,-1,17,8,-2,91,83,74,30.23,30.14,30.07,,,,9,5,12,0.00,,,134
2012-12-22,17,9,1,12,3,-4,92,83,73,30.31,30.24,30.09,,,,15,9,,0.00,,,3
2012-12-23,5,4,2,1,-1,-4,91,89,86,30.27,30.24,30.20,,,,14,9,20,0.15,,,63
2012-12-24,5,-3,-12,-2,-8,-15,87,81,74,30.52,30.40,30.30,,,,9,6,10,0.00,,,341
2012-12-25,4,3,2,1,-2,-4,87,80,72,30.58,30.51,30.40,,,,13,6,15,0.02,,,313
2012-12-26,10,5,-1,6,1,-4,95,87,79,30.38,30.27,30.19,,,,10,5,13,0.00,,,90
2012-12-27,12,8,3,8,4,0,92,84,76,30.19,30.16,30.12,,,,10,6,14,0.07,,,148
2012-12-28,12,6,-1,6,0,-15,95,86,76,30.14,30.12,30.07,,,,10,3,14,0.00,,,263
2012-12-29,12,-1,-15,6,-5,-18,95,85,74,30.16,30.12,30.07,,,,7,1,8,0.00,,,357
2012-12-30,24,15,5,18,9,-8,92,85,77,30.24,30.09,30.02,,,,26,9,30,0.03,,,305
2012-12-31,5,-7,-19,3,-6,-23,95,87,78,30.32,30.28,30.24,,,,17,3,18,0.00,,,53